Date,TemperatureHighF,TemperatureAvgF,TemperatureLowF,DewpointHighF,DewpointAvgF,DewpointLowF,HumidityHigh,HumidityAvg,HumidityLow,PressureMaxIn,PressureMinIn,WindSpeedMaxMPH,WindSpeedAvgMPH,GustSpeedMaxMPH,PrecipitationSumIn
2013-3-1,61,58,54,52,46,39,71,65,52,30.10,29.98,31,14,31,0.00
2013-3-2,56,54,48,45,42,38,78,65,56,30.15,30.04,35,16,36,0.02
2013-3-3,54,48,43,43,38,31,73,66,59,30.22,30.06,38,14,38,0.00
2013-3-4,56,51,44,43,39,31,75,62,49,30.30,30.20,25,7,25,0.00
2013-3-5,67,59,49,62,53,42,93,81,71,30.24,30.10,21,6,21,0.00
2013-3-6,66,58,54,64,49,40,94,72,57,30.21,30.03,37,19,37,0.02
2013-3-7,56,52,45,48,41,34,79,66,54,30.30,30.19,24,9,24,0.00
2013-3-8,63,56,46,52,48,40,91,74,47,30.30,30.20,18,7,18,0.00
2013-3-9,72,61,53,57,50,43,84,70,40,30.28,30.19,19,6,19,0.00
2013-3-10,76,65,59,61,56,52,85,75,51,30.21,30.10,31,7,31,0.00
2013-3-11,71,66,62,63,60,57,89,81,73,30.15,29.93,29,9,29,0.00
2013-3-12,67,63,59,65,59,51,96,87,76,30.11,29.91,32,14,32,0.28
2013-3-13,62,61,59,54,48,44,80,64,54,30.26,30.10,30,15,30,0.00
2013-3-14,62,57,53,55,41,30,78,57,40,30.35,30.24,28,13,28,0.00
2013-3-15,64,57,47,52,44,32,89,63,35,30.36,30.24,15,6,15,0.00
2013-3-16,66,61,53,61,55,42,92,80,44,30.26,30.15,15,5,15,0.00
2013-3-17,72,64,58,62,59,56,94,83,64,30.19,30.06,18,6,18,0.01
2013-3-18,71,67,63,67,62,58,94,86,76,30.09,29.92,32,8,32,0.00
2013-3-19,71,67,64,66,64,62,95,91,85,30.08,29.95,18,4,18,0.00
2013-3-20,68,65,60,65,62,57,94,90,84,30.03,29.87,37,6,37,0.21
2013-3-21,62,59,54,59,46,36,90,62,43,30.07,29.94,27,9,27,0.00
2013-3-22,72,62,52,66,53,44,94,73,45,30.05,29.94,21,6,21,0.18
2013-3-23,71,68,66,69,67,64,98,96,94,30.02,29.86,25,9,25,0.00
2013-3-24,71,69,67,70,68,66,98,96,94,29.87,29.71,30,12,30,0.00
2013-3-25,68,61,57,67,51,41,95,72,53,30.12,29.81,34,17,34,0.00
2013-3-26,61,54,51,49,41,36,67,61,51,30.32,30.11,38,19,38,0.00
2013-3-27,54,50,44,44,37,29,75,61,48,30.40,30.28,23,8,23,0.00
2013-3-28,63,55,47,49,41,30,85,60,33,30.37,30.28,20,8,20,0.00
2013-3-29,72,60,51,54,48,34,85,66,27,30.39,30.27,17,5,17,0.00
2013-3-30,66,62,55,65,56,48,96,81,68,30.31,30.15,19,6,19,0.00
2013-3-31,71,66,59,63,60,54,91,81,65,30.22,30.06,23,7,23,0.00